When you browse on this site, cookies collect data to enhance your experience and personalize the content and advertising you see.
Visit our Privacy Policy to learn more. By continuing to use the site, you agree to this use of cookies and data.
  • In Hungary
  • List of Countries
  • For 7 days
  • Water Temperature
  • Satellite Maps
  • Weather Map
  • News
  • Weather Widgets
  • user-avatar
    Login

    Hourly Weather Szolnok

    Today, 19 January, Saturday

    Time Temperature Precipitation Wind Pressure Humidity
    00:00 +1°C° 0 mm 1 mps 758 mmHg 80%
    01:00 +1°C° 0 mm 1 mps 758 mmHg 81%
    02:00 +1°C° 0 mm 1 mps 758 mmHg 81%
    03:00 -1°C° 0 mm 2 mps 758 mmHg 81%
    04:00 -1°C° 0 mm 2 mps 758 mmHg 81%
    05:00 -1°C° 0 mm 2 mps 758 mmHg 80%
    06:00 -2°C° 0 mm 3 mps 758 mmHg 79%
    07:00 -2°C° 0 mm 3 mps 758 mmHg 77%
    08:00 -1°C° 0 mm 3 mps 758 mmHg 73%
    09:00 -1°C° 0 mm 3 mps 758 mmHg 69%
    10:00 -1°C° 0 mm 4 mps 759 mmHg 65%
    11:00 -1°C° 0 mm 4 mps 758 mmHg 62%
    12:00 0°C° 0 mm 4 mps 758 mmHg 59%
    13:00 +1°C° 0 mm 4 mps 758 mmHg 56%
    14:00 0°C° 0 mm 4 mps 757 mmHg 59%
    15:00 +1°C° 0 mm 3 mps 757 mmHg 61%
    16:00 0°C° 0 mm 3 mps 757 mmHg 64%
    17:00 0°C° 0 mm 3 mps 757 mmHg 67%
    18:00 -1°C° 0 mm 3 mps 757 mmHg 70%
    19:00 -1°C° 0 mm 3 mps 757 mmHg 73%
    20:00 -1°C° 0 mm 3 mps 756 mmHg 74%
    21:00 -1°C° 0 mm 3 mps 756 mmHg 74%
    22:00 -1°C° 0 mm 3 mps 756 mmHg 75%
    23:00 -2°C° 0 mm 3 mps 756 mmHg 77%

    Tomorrow, 20 January, Sunday

    Time Temperature Precipitation Wind Pressure Humidity
    00:00 -2°C° 0 mm 3 mps 756 mmHg 79%
    01:00 -2°C° 0 mm 3 mps 755 mmHg 80%
    02:00 -2°C° 0.1 mm 3 mps 755 mmHg 82%
    03:00 -3°C° 0.1 mm 4 mps 754 mmHg 83%
    04:00 -3°C° 0.1 mm 4 mps 754 mmHg 84%
    05:00 -3°C° 0.4 mm 4 mps 754 mmHg 86%
    06:00 -3°C° 0.4 mm 4 mps 754 mmHg 89%
    07:00 -3°C° 0.4 mm 4 mps 753 mmHg 91%
    08:00 -3°C° 0.6 mm 4 mps 754 mmHg 92%
    09:00 -2°C° 0.6 mm 3 mps 754 mmHg 93%
    10:00 -2°C° 0.6 mm 3 mps 754 mmHg 94%
    11:00 -1°C° 0.3 mm 3 mps 753 mmHg 94%
    12:00 -1°C° 0.3 mm 3 mps 753 mmHg 95%
    13:00 -1°C° 0.3 mm 2 mps 753 mmHg 95%
    14:00 -1°C° 0.2 mm 2 mps 753 mmHg 95%
    15:00 -1°C° 0.2 mm 2 mps 753 mmHg 95%
    16:00 -1°C° 0.2 mm 2 mps 753 mmHg 96%
    17:00 -1°C° 0.1 mm 2 mps 753 mmHg 96%
    18:00 -1°C° 0.1 mm 2 mps 754 mmHg 96%
    19:00 -1°C° 0.1 mm 2 mps 754 mmHg 96%
    20:00 +1°C° 0.1 mm 1 mps 754 mmHg 96%
    21:00 +1°C° 0.1 mm 1 mps 755 mmHg 96%
    22:00 +1°C° 0.1 mm 1 mps 755 mmHg 96%
    23:00 +1°C° 0.1 mm 1 mps 755 mmHg 95%

    Day after tomorrow, 21 January, Monday

    Time Temperature Precipitation Wind Pressure Humidity
    00:00 +1°C° 0.1 mm 1 mps 755 mmHg 95%
    01:00 +1°C° 0.1 mm 1 mps 756 mmHg 95%
    02:00 0°C° 0 mm 1 mps 756 mmHg 94%
    03:00 -1°C° 0 mm 1 mps 756 mmHg 92%
    04:00 -1°C° 0 mm 1 mps 756 mmHg 91%
    05:00 -1°C° 0 mm 1 mps 756 mmHg 89%
    06:00 -2°C° 0 mm 1 mps 757 mmHg 87%
    07:00 -2°C° 0 mm 1 mps 757 mmHg 86%
    08:00 -3°C° 0 mm 2 mps 757 mmHg 82%
    09:00 -2°C° 0 mm 2 mps 757 mmHg 78%
    10:00 -2°C° 0 mm 2 mps 758 mmHg 75%
    11:00 -2°C° 0 mm 2 mps 758 mmHg 74%
    12:00 -1°C° 0 mm 2 mps 758 mmHg 73%
    13:00 -1°C° 0 mm 2 mps 758 mmHg 73%
    14:00 -1°C° 0 mm 2 mps 757 mmHg 75%
    15:00 0°C° 0 mm 1 mps 757 mmHg 78%
    16:00 -1°C° 0 mm 1 mps 757 mmHg 80%
    17:00 -1°C° 0 mm 1 mps 757 mmHg 81%
    18:00 -1°C° 0 mm 1 mps 758 mmHg 82%
    19:00 -3°C° 0 mm 0 mps 758 mmHg 83%
    20:00 -2°C° 0 mm 1 mps 758 mmHg 84%
    21:00 -2°C° 0 mm 1 mps 758 mmHg 84%
    22:00 -2°C° 0 mm 1 mps 758 mmHg 84%
    23:00 -2°C° 0 mm 1 mps 758 mmHg 85%

    22 January, Tuesday

    Time Temperature Precipitation Wind Pressure Humidity
    00:00 -2°C° 0 mm 1 mps 758 mmHg 85%
    01:00 -2°C° 0 mm 1 mps 757 mmHg 86%
    02:00 -2°C° 0 mm 1 mps 757 mmHg 87%
    03:00 -3°C° 0 mm 0 mps 757 mmHg 87%
    04:00 -3°C° 0 mm 0 mps 756 mmHg 88%
    05:00 -3°C° 0 mm 0 mps 756 mmHg 89%
    06:00 -4°C° 0 mm 0 mps 756 mmHg 89%
    07:00 -4°C° 0 mm 0 mps 756 mmHg 90%
    08:00 -3°C° 0 mm 0 mps 756 mmHg 88%
    09:00 -2°C° 0 mm 0 mps 755 mmHg 86%
    10:00 -2°C° 0 mm 0 mps 755 mmHg 84%
    11:00 -1°C° 0 mm 0 mps 755 mmHg 83%
    12:00 -1°C° 0 mm 0 mps 754 mmHg 82%
    13:00 +1°C° 0 mm 1 mps 753 mmHg 81%
    14:00 0°C° 0 mm 1 mps 753 mmHg 84%
    15:00 0°C° 0 mm 1 mps 752 mmHg 86%
    16:00 -3°C° 0 mm 2 mps 751 mmHg 89%
    17:00 -3°C° 0 mm 2 mps 751 mmHg 89%
    18:00 -3°C° 0 mm 2 mps 750 mmHg 90%
    19:00 -3°C° 0 mm 2 mps 750 mmHg 90%
    20:00 -4°C° 0 mm 2 mps 750 mmHg 91%
    21:00 -4°C° 0 mm 2 mps 749 mmHg 92%
    22:00 -5°C° 0 mm 3 mps 749 mmHg 93%
    23:00 -5°C° 0 mm 3 mps 748 mmHg 93%

    23 January, Wednesday

    Time Temperature Precipitation Wind Pressure Humidity
    00:00 -5°C° 0 mm 3 mps 747 mmHg 93%
    01:00 -5°C° 0 mm 4 mps 746 mmHg 93%
    02:00 -5°C° 0 mm 4 mps 745 mmHg 93%
    03:00 -5°C° 0 mm 4 mps 744 mmHg 93%
    04:00 -6°C° 0 mm 5 mps 744 mmHg 93%
    05:00 -5°C° 0.3 mm 4 mps 743 mmHg 93%
    06:00 -5°C° 0.3 mm 4 mps 743 mmHg 93%
    07:00 -4°C° 0.3 mm 4 mps 742 mmHg 94%
    08:00 -4°C° 0.4 mm 4 mps 742 mmHg 94%
    09:00 -4°C° 0.4 mm 4 mps 742 mmHg 93%
    10:00 -4°C° 0.4 mm 4 mps 742 mmHg 93%
    11:00 -4°C° 0.2 mm 3 mps 741 mmHg 93%
    12:00 -2°C° 0.2 mm 3 mps 741 mmHg 93%
    13:00 -2°C° 0.2 mm 3 mps 741 mmHg 93%
    14:00 -2°C° 0.1 mm 2 mps 740 mmHg 94%
    15:00 -2°C° 0.1 mm 2 mps 740 mmHg 95%
    16:00 0°C° 0.1 mm 1 mps 740 mmHg 96%
    17:00 -2°C° 0 mm 2 mps 740 mmHg 96%
    18:00 -2°C° 0 mm 2 mps 740 mmHg 97%
    19:00 -2°C° 0 mm 2 mps 740 mmHg 97%
    20:00 -1°C° 0 mm 2 mps 741 mmHg 97%
    21:00 -1°C° 0 mm 2 mps 741 mmHg 97%
    22:00 -1°C° 0 mm 2 mps 741 mmHg 97%
    23:00 -1°C° 0 mm 3 mps 740 mmHg 96%

    24 January, Thursday

    Time Temperature Precipitation Wind Pressure Humidity
    00:00 -1°C° 0 mm 3 mps 740 mmHg 96%
    01:00 -2°C° 0 mm 4 mps 740 mmHg 95%
    02:00 -2°C° 0 mm 4 mps 739 mmHg 95%
    03:00 -2°C° 0 mm 5 mps 739 mmHg 94%
    04:00 -4°C° 0 mm 5 mps 739 mmHg 93%
    05:00 -4°C° 0 mm 5 mps 739 mmHg 92%
    06:00 -4°C° 0 mm 5 mps 739 mmHg 91%
    07:00 -3°C° 0 mm 4 mps 739 mmHg 91%
    08:00 -2°C° 0 mm 5 mps 739 mmHg 89%
    09:00 -2°C° 0 mm 5 mps 739 mmHg 88%
    10:00 -1°C° 0 mm 5 mps 739 mmHg 86%
    11:00 -1°C° 0 mm 5 mps 738 mmHg 87%
    12:00 0°C° 0 mm 5 mps 738 mmHg 89%
    13:00 -1°C° 0 mm 6 mps 738 mmHg 90%
    14:00 0°C° 0 mm 5 mps 738 mmHg 91%
    15:00 0°C° 0 mm 5 mps 738 mmHg 92%
    16:00 -1°C° 0 mm 4 mps 738 mmHg 92%
    17:00 -1°C° 0 mm 4 mps 738 mmHg 92%
    18:00 -1°C° 0 mm 4 mps 738 mmHg 91%
    19:00 -2°C° 0 mm 4 mps 738 mmHg 91%
    20:00 -2°C° 0 mm 4 mps 738 mmHg 90%
    21:00 -2°C° 0 mm 5 mps 737 mmHg 89%
    22:00 -2°C° 0 mm 5 mps 737 mmHg 88%
    23:00 -2°C° 0 mm 5 mps 737 mmHg 87%
    Show more